C/2012 K1 ( PanSTARRS )

Japanese version
Home page
Updated on July 12, 2015

---------------------------------------------------------------------

* Profile

Discovery Date May 19, 2012
Magnitude 19.7 mag
Discoverer Pan-STARRS 1 telescope (Haleakala)

* Pictures

* Orbital Elements

Epoch 2014 Aug. 11.0 TT = JDT 2456880.5
T 2014 Aug. 27.65594 TT                                 MPCW
q   1.0545571            (2000.0)            P               Q
z  -0.0001538      Peri.  203.10563     -0.47153202     +0.78070369
                   Node   317.73795     +0.87390762     +0.47595550
e   1.0001622      Incl.  142.42839     +0.11808060     -0.40492976
From 7308 observations 2012 May 14-2015 June 16, mean residual 0".6.
     Nongravitational parameters A1 = +1.82, A2 = +0.1324.

* Finding Charts

* Magnitudes Graph

        m1 = 5.5 + 5 log d +  8.5 log r(t + 15)  [  ,30]  (             - 2014 Sept.26)
        m1 = 5.8 + 5 log d + 10.0 log r          [30,  ]  (2014 Sept.26 -             )

---------------------------------------------------------------------

The orbital elements are published on M.P.E.C. 2015-N31.
The charts are made with StellaNavigator Ver.8 (AstroArts).
The magnitudes graphs are made with Comet for Windows.

---------------------------------------------------------------------

Copyright(C) Seiichi Yoshida (comet@aerith.net). All rights reserved.